Buoy 46930

sailwx.info

Track history (hours):
 
Tides and Currents Weather Stations Pressure Air Temp Water Temp Dewpoint Dewpoint Depression Visibility Wind Speed Wind Dir Waves Ship Positions

Drifting buoy 46930

Last reported at 2014-Oct-24 06:00 UTC. Time now 2014-Oct-24 12:49 UTC.
Position N 18°33' W 117°44'.

Water temperature 26.0 ° C

Date/timePositionNaut miles runAvg speedWind from/ knotsBaromVisibWave heightAir tempDewpointWater temp
2014-Oct-24 06:00N 18°33' W 117°44'1 0.7 26.0
2014-Oct-24 05:00N 18°34' W 117°45'0 0.0 26.0
2014-Oct-24 04:00N 18°34' W 117°45'1 0.5 26.0
2014-Oct-24 03:00N 18°34' W 117°45'1 0.8 26.0
2014-Oct-24 02:00N 18°34' W 117°46'1 0.6 26.0
2014-Oct-24 01:00N 18°34' W 117°46'0 0.0 26.0
2014-Oct-23 23:00N 18°34' W 117°46'1 0.7 26.1
2014-Oct-23 22:00N 18°35' W 117°46'0 0.0 26.1
2014-Oct-23 19:00N 18°35' W 117°46'1 0.7 25.9
2014-Oct-23 17:00N 18°35' W 117°47'0 0.1 25.9
2014-Oct-23 13:00N 18°36' W 117°48'1 0.6 25.9
2014-Oct-23 11:00N 18°37' W 117°48'1 0.3 25.9
2014-Oct-23 06:00N 18°38' W 117°49'1 0.9 26.0
2014-Oct-23 05:00N 18°38' W 117°49'1 0.3 26.0
2014-Oct-23 03:00N 18°38' W 117°49'4 1.8 26.0
2014-Oct-23 01:00N 18°42' W 117°50'0 0.0 26.0
2014-Oct-23 00:00N 18°42' W 117°50'0 0.0 26.0
2014-Oct-22 23:00N 18°42' W 117°50'2 0.3 26.1
2014-Oct-22 17:00N 18°43' W 117°52'0 0.0 25.9
2014-Oct-22 16:00N 18°43' W 117°52'0 0.0 25.9
2014-Oct-22 14:00N 18°43' W 117°52'4 1.8 25.9
2014-Oct-22 12:00N 18°46' W 117°54'0 0.0 25.9
2014-Oct-22 11:00N 18°46' W 117°54'0 0.0 25.9
2014-Oct-22 07:00N 18°46' W 117°54'1 0.2 26.0
2014-Oct-22 04:00N 18°46' W 117°55'0 0.2 26.0
2014-Oct-22 02:00N 18°47' W 117°55'0 0.0 26.0
2014-Oct-22 01:00N 18°47' W 117°55'2 0.8 26.1
2014-Oct-21 22:00N 18°48' W 117°56'0 0.0 26.3
2014-Oct-21 20:00N 18°48' W 117°56'1 0.9 26.2
2014-Oct-21 19:00N 18°49' W 117°56'1 0.4 26.1
2014-Oct-21 16:00N 18°50' W 117°57'0 0.0 25.9
2014-Oct-21 14:00N 18°50' W 117°57'0 0.2 25.9
2014-Oct-21 12:00N 18°51' W 117°57'2 2.0 25.9
2014-Oct-21 11:00N 18°53' W 117°57'0 0.0 25.9
2014-Oct-21 08:00N 18°53' W 117°57'1 1.3 25.9
2014-Oct-21 07:00N 18°54' W 117°58'0 0.1 25.9
2014-Oct-21 06:00N 18°54' W 117°58'1 0.6 25.9
2014-Oct-21 05:00N 18°54' W 117°58'2 0.5 25.9
2014-Oct-21 00:00N 18°56' W 117°60'1 0.2 26.1
2014-Oct-20 21:00N 18°57' W 117°60'0 0.1 26.1
2014-Oct-20 20:00N 18°57' W 117°60'2 1.2 26.1
2014-Oct-20 18:00N 18°59' W 118°01'0 0.0 26.0
2014-Oct-20 17:00N 18°59' W 118°01'0 0.5 25.9
2014-Oct-20 16:00N 18°59' W 118°01'0 0.0 25.9
2014-Oct-20 15:00N 18°59' W 118°01'1 0.3 25.9
2014-Oct-20 13:00N 18°59' W 118°01'0 0.1 25.9
2014-Oct-20 12:00N 18°59' W 118°01'0 0.2 25.9
2014-Oct-20 11:00N 18°60' W 118°01'1 0.3 25.9
2014-Oct-20 09:00N 19°00' W 118°01'2 0.4 25.9
2014-Oct-20 05:00N 19°02' W 118°02'0 0.2 26.0
2014-Oct-20 04:00N 19°02' W 118°01'1 0.4 26.0
2014-Oct-20 01:00N 19°03' W 118°01'1 0.5 26.1
2014-Oct-20 00:00N 19°03' W 118°01'1 0.5 26.1
2014-Oct-19 23:00N 19°04' W 118°00'1 0.8 26.1
2014-Oct-19 22:00N 19°04' W 118°01'0 0.0 26.1
2014-Oct-19 20:00N 19°04' W 118°01'1 0.3 26.1
2014-Oct-19 18:00N 19°05' W 118°01'1 0.2 26.0
2014-Oct-19 12:00N 19°06' W 118°01'0 0.3 26.0
2014-Oct-19 11:00N 19°06' W 118°00'0 0.2 26.0
2014-Oct-19 10:00N 19°06' W 118°00'2 0.3 26.0
2014-Oct-19 05:00N 19°08' W 118°01'1 0.3 26.0
2014-Oct-19 03:00N 19°08' W 118°00'0 0.0 26.1
2014-Oct-19 02:00N 19°08' W 118°00'0 0.1 26.1
2014-Oct-18 22:00N 19°08' W 118°00'1 0.2 26.2
2014-Oct-18 18:00N 19°09' W 117°60'1 0.7 26.0
2014-Oct-18 17:00N 19°09' W 117°60'0 0.2 26.0
2014-Oct-18 15:00N 19°10' W 117°59'0 0.2 26.0
2014-Oct-18 13:00N 19°10' W 117°59'1 0.3 26.0
2014-Oct-18 11:00N 19°10' W 117°59'1 0.6 26.0
2014-Oct-18 10:00N 19°11' W 117°58'1 0.2 26.0
2014-Oct-18 06:00N 19°11' W 117°58'1 0.6 26.1
2014-Oct-18 05:00N 19°11' W 117°59'1 0.2 26.1
2014-Oct-18 00:00N 19°12' W 117°59'0 0.1 26.2
2014-Oct-17 22:00N 19°12' W 117°58'1 0.4 26.2
2014-Oct-17 20:00N 19°12' W 117°59'1 0.4 26.2
2014-Oct-17 18:00N 19°12' W 117°58'1 1.2 26.1
2014-Oct-17 17:00N 19°13' W 117°59'0 0.4 26.1
2014-Oct-17 16:00N 19°13' W 117°59'0 0.0 26.0
2014-Oct-17 15:00N 19°13' W 117°59'0 0.2 26.0
2014-Oct-17 14:00N 19°13' W 117°59'0 0.2 26.0
2014-Oct-17 12:00N 19°13' W 117°58'0 0.2 26.0
2014-Oct-17 11:00N 19°13' W 117°58'0 0.1 26.0
2014-Oct-17 05:00N 19°13' W 117°59'0 0.5 26.1
2014-Oct-17 04:00N 19°14' W 117°59'1 0.8 26.1
2014-Oct-17 03:00N 19°14' W 117°60'0 0.0 26.1
2014-Oct-17 02:00N 19°14' W 117°60'1 0.4 26.2
2014-Oct-17 00:00N 19°14' W 118°00'0 0.1 26.2
2014-Oct-16 17:00N 19°15' W 118°01'0 0.1 26.1
2014-Oct-16 11:00N 19°15' W 118°01'1 0.1 26.1
2014-Oct-16 05:00N 19°15' W 118°01'1 0.3 26.1
2014-Oct-16 00:00N 19°16' W 118°02'1 0.5 26.2
2014-Oct-15 21:00N 19°14' W 118°03'0 0.0 26.2
2014-Oct-15 19:00N 19°14' W 118°03'0 0.2 26.2
2014-Oct-15 17:00N 19°14' W 118°03'0 0.0 26.1
2014-Oct-15 16:00N 19°14' W 118°03'1 0.4 26.1
2014-Oct-15 13:00N 19°14' W 118°04'2 0.2 26.1
2014-Oct-15 06:00N 19°12' W 118°05'0 0.1 26.1
2014-Oct-15 04:00N 19°12' W 118°05'0 0.1 26.1
2014-Oct-15 03:00N 19°12' W 118°05'1 0.9 26.1
2014-Oct-15 02:00N 19°12' W 118°06'1 1.0 26.1
2014-Oct-15 01:00N 19°12' W 118°07'0 0.1 26.1
2014-Oct-14 23:00N 19°12' W 118°06'6 0.7 26.2
2014-Oct-14 14:00N 19°07' W 118°10'0 0.2 26.1
2014-Oct-14 13:00N 19°07' W 118°10'1 0.6 26.1
2014-Oct-14 12:00N 19°07' W 118°11'1 1.3 26.1
2014-Oct-14 11:00N 19°05' W 118°11'0 0.1 26.1
2014-Oct-14 10:00N 19°05' W 118°11'4 1.0 26.1
2014-Oct-14 06:00N 19°01' W 118°12'   26.1
Track history (hours):
 
Tides and Currents Weather Stations Pressure Air Temp Water Temp Dewpoint Dewpoint Depression Visibility Wind Speed Wind Dir Waves Ship Positions

Drifting buoy 46930

Last reported at 2014-Oct-24 06:00 UTC. Time now 2014-Oct-24 12:49 UTC.
Position N 18°33' W 117°44'.

Water temperature 26.0 ° C

Date/timePositionNaut miles runAvg speedWind from/ knotsBaromVisibWave heightAir tempDewpointWater temp
2014-Oct-24 06:00N 18°33' W 117°44'1 0.7 26.0
2014-Oct-24 05:00N 18°34' W 117°45'0 0.0 26.0
2014-Oct-24 04:00N 18°34' W 117°45'1 0.5 26.0
2014-Oct-24 03:00N 18°34' W 117°45'1 0.8 26.0
2014-Oct-24 02:00N 18°34' W 117°46'1 0.6 26.0
2014-Oct-24 01:00N 18°34' W 117°46'0 0.0 26.0
2014-Oct-23 23:00N 18°34' W 117°46'1 0.7 26.1
2014-Oct-23 22:00N 18°35' W 117°46'0 0.0 26.1
2014-Oct-23 19:00N 18°35' W 117°46'1 0.7 25.9
2014-Oct-23 17:00N 18°35' W 117°47'0 0.1 25.9
2014-Oct-23 13:00N 18°36' W 117°48'1 0.6 25.9
2014-Oct-23 11:00N 18°37' W 117°48'1 0.3 25.9
2014-Oct-23 06:00N 18°38' W 117°49'1 0.9 26.0
2014-Oct-23 05:00N 18°38' W 117°49'1 0.3 26.0
2014-Oct-23 03:00N 18°38' W 117°49'4 1.8 26.0
2014-Oct-23 01:00N 18°42' W 117°50'0 0.0 26.0
2014-Oct-23 00:00N 18°42' W 117°50'0 0.0 26.0
2014-Oct-22 23:00N 18°42' W 117°50'2 0.3 26.1
2014-Oct-22 17:00N 18°43' W 117°52'0 0.0 25.9
2014-Oct-22 16:00N 18°43' W 117°52'0 0.0 25.9
2014-Oct-22 14:00N 18°43' W 117°52'4 1.8 25.9
2014-Oct-22 12:00N 18°46' W 117°54'0 0.0 25.9
2014-Oct-22 11:00N 18°46' W 117°54'0 0.0 25.9
2014-Oct-22 07:00N 18°46' W 117°54'1 0.2 26.0
2014-Oct-22 04:00N 18°46' W 117°55'0 0.2 26.0
2014-Oct-22 02:00N 18°47' W 117°55'0 0.0 26.0
2014-Oct-22 01:00N 18°47' W 117°55'2 0.8 26.1
2014-Oct-21 22:00N 18°48' W 117°56'0 0.0 26.3
2014-Oct-21 20:00N 18°48' W 117°56'1 0.9 26.2
2014-Oct-21 19:00N 18°49' W 117°56'1 0.4 26.1
2014-Oct-21 16:00N 18°50' W 117°57'0 0.0 25.9
2014-Oct-21 14:00N 18°50' W 117°57'0 0.2 25.9
2014-Oct-21 12:00N 18°51' W 117°57'2 2.0 25.9
2014-Oct-21 11:00N 18°53' W 117°57'0 0.0 25.9
2014-Oct-21 08:00N 18°53' W 117°57'1 1.3 25.9
2014-Oct-21 07:00N 18°54' W 117°58'0 0.1 25.9
2014-Oct-21 06:00N 18°54' W 117°58'1 0.6 25.9
2014-Oct-21 05:00N 18°54' W 117°58'2 0.5 25.9
2014-Oct-21 00:00N 18°56' W 117°60'1 0.2 26.1
2014-Oct-20 21:00N 18°57' W 117°60'0 0.1 26.1
2014-Oct-20 20:00N 18°57' W 117°60'2 1.2 26.1
2014-Oct-20 18:00N 18°59' W 118°01'0 0.0 26.0
2014-Oct-20 17:00N 18°59' W 118°01'0 0.5 25.9
2014-Oct-20 16:00N 18°59' W 118°01'0 0.0 25.9
2014-Oct-20 15:00N 18°59' W 118°01'1 0.3 25.9
2014-Oct-20 13:00N 18°59' W 118°01'0 0.1 25.9
2014-Oct-20 12:00N 18°59' W 118°01'0 0.2 25.9
2014-Oct-20 11:00N 18°60' W 118°01'1 0.3 25.9
2014-Oct-20 09:00N 19°00' W 118°01'2 0.4 25.9
2014-Oct-20 05:00N 19°02' W 118°02'0 0.2 26.0
2014-Oct-20 04:00N 19°02' W 118°01'1 0.4 26.0
2014-Oct-20 01:00N 19°03' W 118°01'1 0.5 26.1
2014-Oct-20 00:00N 19°03' W 118°01'1 0.5 26.1
2014-Oct-19 23:00N 19°04' W 118°00'1 0.8 26.1
2014-Oct-19 22:00N 19°04' W 118°01'0 0.0 26.1
2014-Oct-19 20:00N 19°04' W 118°01'1 0.3 26.1
2014-Oct-19 18:00N 19°05' W 118°01'1 0.2 26.0
2014-Oct-19 12:00N 19°06' W 118°01'0 0.3 26.0
2014-Oct-19 11:00N 19°06' W 118°00'0 0.2 26.0
2014-Oct-19 10:00N 19°06' W 118°00'2 0.3 26.0
2014-Oct-19 05:00N 19°08' W 118°01'1 0.3 26.0
2014-Oct-19 03:00N 19°08' W 118°00'0 0.0 26.1
2014-Oct-19 02:00N 19°08' W 118°00'0 0.1 26.1
2014-Oct-18 22:00N 19°08' W 118°00'1 0.2 26.2
2014-Oct-18 18:00N 19°09' W 117°60'1 0.7 26.0
2014-Oct-18 17:00N 19°09' W 117°60'0 0.2 26.0
2014-Oct-18 15:00N 19°10' W 117°59'0 0.2 26.0
2014-Oct-18 13:00N 19°10' W 117°59'1 0.3 26.0
2014-Oct-18 11:00N 19°10' W 117°59'1 0.6 26.0
2014-Oct-18 10:00N 19°11' W 117°58'1 0.2 26.0
2014-Oct-18 06:00N 19°11' W 117°58'1 0.6 26.1
2014-Oct-18 05:00N 19°11' W 117°59'1 0.2 26.1
2014-Oct-18 00:00N 19°12' W 117°59'0 0.1 26.2
2014-Oct-17 22:00N 19°12' W 117°58'1 0.4 26.2
2014-Oct-17 20:00N 19°12' W 117°59'1 0.4 26.2
2014-Oct-17 18:00N 19°12' W 117°58'1 1.2 26.1
2014-Oct-17 17:00N 19°13' W 117°59'0 0.4 26.1
2014-Oct-17 16:00N 19°13' W 117°59'0 0.0 26.0
2014-Oct-17 15:00N 19°13' W 117°59'0 0.2 26.0
2014-Oct-17 14:00N 19°13' W 117°59'0 0.2 26.0
2014-Oct-17 12:00N 19°13' W 117°58'0 0.2 26.0
2014-Oct-17 11:00N 19°13' W 117°58'0 0.1 26.0
2014-Oct-17 05:00N 19°13' W 117°59'0 0.5 26.1
2014-Oct-17 04:00N 19°14' W 117°59'1 0.8 26.1
2014-Oct-17 03:00N 19°14' W 117°60'0 0.0 26.1
2014-Oct-17 02:00N 19°14' W 117°60'1 0.4 26.2
2014-Oct-17 00:00N 19°14' W 118°00'0 0.1 26.2
2014-Oct-16 17:00N 19°15' W 118°01'0 0.1 26.1
2014-Oct-16 11:00N 19°15' W 118°01'1 0.1 26.1
2014-Oct-16 05:00N 19°15' W 118°01'1 0.3 26.1
2014-Oct-16 00:00N 19°16' W 118°02'1 0.5 26.2
2014-Oct-15 21:00N 19°14' W 118°03'0 0.0 26.2
2014-Oct-15 19:00N 19°14' W 118°03'0 0.2 26.2
2014-Oct-15 17:00N 19°14' W 118°03'0 0.0 26.1
2014-Oct-15 16:00N 19°14' W 118°03'1 0.4 26.1
2014-Oct-15 13:00N 19°14' W 118°04'2 0.2 26.1
2014-Oct-15 06:00N 19°12' W 118°05'0 0.1 26.1
2014-Oct-15 04:00N 19°12' W 118°05'0 0.1 26.1
2014-Oct-15 03:00N 19°12' W 118°05'1 0.9 26.1
2014-Oct-15 02:00N 19°12' W 118°06'1 1.0 26.1
2014-Oct-15 01:00N 19°12' W 118°07'0 0.1 26.1
2014-Oct-14 23:00N 19°12' W 118°06'6 0.7 26.2
2014-Oct-14 14:00N 19°07' W 118°10'0 0.2 26.1
2014-Oct-14 13:00N 19°07' W 118°10'1 0.6 26.1
2014-Oct-14 12:00N 19°07' W 118°11'1 1.3 26.1
2014-Oct-14 11:00N 19°05' W 118°11'0 0.1 26.1
2014-Oct-14 10:00N 19°05' W 118°11'4 1.0 26.1
2014-Oct-14 06:00N 19°01' W 118°12'   26.1

Dump ship's entire track history